Regional Weather Roundup
Issued by NWS Albany, NY

Home | Current Version | Previous Version | Graphics & Text | Print | Product List | Glossary Off
Versions: 1 2 3 4 5 6 7 8 9 10 11 12 13 14 15 16 17 18 19 20 21 22 23 24 25 26 27 28 29 30 31 32 33 34 35 36 37 38 39 40 41 42 43 44 45 46 47 48 49 50

000
ASUS41 KALY 241010
RWRALY

NEW YORK STATE HOURLY WEATHER ROUNDUP
NATIONAL WEATHER SERVICE ALBANY NY
500 AM EST FRI NOV 24 2017

NOTE: "FAIR" INDICATES FEW OR NO CLOUDS BELOW 12,000 FEET WITH NO
SIGNIFICANT WEATHER AND/OR NO OBSTRUCTIONS TO VISIBILITY.

NYZ032-033-038>043-046>054-057>066-NYZ062>081-082-084-241100-
EAST


CITY           SKY/WX    TMP DP  RH WIND       PRES   REMARKS
ALBANY         CLOUDY    31  21  66 S6        30.00R WCI  25
GLENS FALLS    NOT AVBL
POUGHKEEPSIE   CLEAR     25  22  88 CALM      30.02R
NEWBURGH       CLEAR     28  23  80 W8        30.01F WCI  20
MONTGOMERY     CLEAR     25  20  81 SW6       30.01R WCI  18
WHITE PLAINS   CLEAR     30  21  69 W5        30.00S WCI  25
ISLIP          CLEAR     29  23  78 CALM      30.03R
NEW YORK CITY  CLEAR     39  22  50 W8        30.03S WCI  33
CENTRAL PARK   CLEAR     36  21  54 W7        30.05S WCI  30
$$

NYZ005>009-017-018-044>046-055-056-241100-
CENTRAL


CITY           SKY/WX    TMP DP  RH WIND       PRES   REMARKS
FULTON         CLOUDY    37  26  64 S6        29.94F WCI  32
SYRACUSE       CLOUDY    37  24  59 SW6       29.95S WCI  32
ROME           CLOUDY    34  29  82 CALM      29.97R
ELMIRA         CLEAR     27  24  89 CALM      29.97R
BINGHAMTON     CLOUDY    31  20  63 S5        29.94R WCI  26
MONTICELLO     CLOUDY    22  19  89 CALM      29.98S
$$

NYZ026>034-041>043-087-241100-
NORTH


CITY           SKY/WX    TMP DP  RH WIND       PRES   REMARKS
WATERTOWN      CLOUDY    39  33  79 W6        29.91F WCI  35
FORT DRUM      NOT AVBL
OGDENSBURG     CLOUDY    37  29  73 SW7       29.89R WCI  31
MASSENA        CLOUDY    36  30  79 SW7       29.90R WCI  30
SARANAC LAKE   CLOUDY    30  28  92 MISG      29.84S
PLATTSBURGH    CLOUDY    37  27  67 SW5       29.90S WCI  33
$$

NYZ001>004-010>016-019>021-085-241100-
WEST


CITY           SKY/WX    TMP DP  RH WIND       PRES   REMARKS
NIAGARA FALLS  CLOUDY    38  25  59 SW7       29.91F WCI  33
BUFFALO        CLOUDY    38  28  67 SW10      29.92S WCI  31
DUNKIRK        CLEAR     34  25  69 S10       29.94F WCI  26
JAMESTOWN      CLEAR     28  22  78 S8        29.93F WCI  20
WELLSVILLE     CLEAR     32  20  61 SW7       29.92F WCI  26
ROCHESTER      CLOUDY    38  28  67 SW6       29.94S WCI  33
PENN YAN       CLOUDY    37  23  56 S8        29.95R WCI  31
$$

             KEY
       WCI = WIND CHILL INDEX
       VSB = VISIBILITY
       HX  = HEAT INDEX
$$



USA.gov is the U.S. government's official web portal to all federal, state and local government web resources and services.